• In Deutschland
  • Länderverzeichnis
  • Für 7 Tage
  • Wassertemperatur
  • Satellitenkarten
  • Wetterkarte
  • Widgets
  • user-avatar
    Anmelden

    Stündliche Wetter Tusla

    Heute, 19 Oktober, Freitag

    Zeit Temperatur Niederschläge Wind Luftdruck Luftfeuchtigkeit
    00:00 +12°C° 0 mm 0 m/S 722 mmHg 69%
    01:00 +12°C° 0 mm 0 m/S 723 mmHg 73%
    02:00 +11°C° 0 mm 0 m/S 722 mmHg 75%
    03:00 +11°C° 0 mm 0 m/S 722 mmHg 77%
    04:00 +10°C° 0 mm 0 m/S 722 mmHg 79%
    05:00 +11°C° 0 mm 0 m/S 723 mmHg 78%
    06:00 +11°C° 0 mm 0 m/S 723 mmHg 78%
    07:00 +11°C° 0 mm 0 m/S 723 mmHg 77%
    08:00 +14°C° 0 mm 1 m/S 723 mmHg 69%
    09:00 +18°C° 0 mm 1 m/S 724 mmHg 61%
    10:00 +20°C° 0 mm 1 m/S 724 mmHg 52%
    11:00 +21°C° 0 mm 1 m/S 724 mmHg 50%
    12:00 +22°C° 0 mm 1 m/S 724 mmHg 48%
    13:00 +21°C° 0 mm 2 m/S 724 mmHg 46%
    14:00 +21°C° 0 mm 2 m/S 724 mmHg 49%
    15:00 +20°C° 0 mm 2 m/S 724 mmHg 53%
    16:00 +20°C° 0 mm 1 m/S 723 mmHg 56%
    17:00 +18°C° 0 mm 1 m/S 724 mmHg 64%
    18:00 +15°C° 0 mm 1 m/S 724 mmHg 71%
    19:00 +13°C° 0 mm 1 m/S 724 mmHg 78%
    20:00 +13°C° 0 mm 1 m/S 724 mmHg 79%
    21:00 +13°C° 0 mm 1 m/S 724 mmHg 80%
    22:00 +12°C° 0 mm 1 m/S 725 mmHg 82%
    23:00 +12°C° 0 mm 1 m/S 725 mmHg 83%

    Morgen, 20 Oktober, Samstag

    Zeit Temperatur Niederschläge Wind Luftdruck Luftfeuchtigkeit
    00:00 +11°C° 0 mm 1 m/S 725 mmHg 85%
    01:00 +11°C° 0 mm 1 m/S 725 mmHg 87%
    02:00 +11°C° 0 mm 1 m/S 725 mmHg 88%
    03:00 +10°C° 0 mm 1 m/S 725 mmHg 89%
    04:00 +10°C° 0 mm 1 m/S 725 mmHg 89%
    05:00 +10°C° 0 mm 1 m/S 726 mmHg 88%
    06:00 +10°C° 0 mm 1 m/S 726 mmHg 87%
    07:00 +11°C° 0 mm 1 m/S 726 mmHg 86%
    08:00 +13°C° 0 mm 1 m/S 727 mmHg 76%
    09:00 +15°C° 0 mm 1 m/S 727 mmHg 65%
    10:00 +17°C° 0 mm 2 m/S 727 mmHg 55%
    11:00 +18°C° 0 mm 2 m/S 727 mmHg 53%
    12:00 +18°C° 0 mm 2 m/S 727 mmHg 51%
    13:00 +19°C° 0 mm 2 m/S 727 mmHg 49%
    14:00 +18°C° 0 mm 2 m/S 727 mmHg 52%
    15:00 +18°C° 0 mm 2 m/S 727 mmHg 55%
    16:00 +17°C° 0 mm 2 m/S 726 mmHg 58%
    17:00 +16°C° 0 mm 1 m/S 726 mmHg 64%
    18:00 +14°C° 0 mm 1 m/S 727 mmHg 71%
    19:00 +13°C° 0 mm 1 m/S 727 mmHg 77%
    20:00 +13°C° 0 mm 1 m/S 727 mmHg 77%
    21:00 +13°C° 0 mm 1 m/S 727 mmHg 77%
    22:00 +13°C° 0 mm 1 m/S 727 mmHg 78%
    23:00 +13°C° 0 mm 1 m/S 727 mmHg 80%

    übermorgen, 21 Oktober, Sonntag

    Zeit Temperatur Niederschläge Wind Luftdruck Luftfeuchtigkeit
    00:00 +12°C° 0 mm 1 m/S 727 mmHg 82%
    01:00 +12°C° 0 mm 1 m/S 727 mmHg 83%
    02:00 +12°C° 0.1 mm 1 m/S 727 mmHg 85%
    03:00 +12°C° 0.1 mm 1 m/S 726 mmHg 87%
    04:00 +11°C° 0.1 mm 1 m/S 726 mmHg 89%
    05:00 +11°C° 0.1 mm 1 m/S 726 mmHg 90%
    06:00 +9°C° 0.1 mm 2 m/S 726 mmHg 91%
    07:00 +9°C° 0.1 mm 2 m/S 726 mmHg 91%
    08:00 +10°C° 0 mm 2 m/S 726 mmHg 83%
    09:00 +12°C° 0 mm 2 m/S 726 mmHg 75%
    10:00 +12°C° 0 mm 3 m/S 726 mmHg 67%
    11:00 +13°C° 0 mm 3 m/S 726 mmHg 63%
    12:00 +13°C° 0 mm 3 m/S 726 mmHg 59%
    13:00 +14°C° 0 mm 3 m/S 725 mmHg 55%
    14:00 +13°C° 0 mm 3 m/S 725 mmHg 55%
    15:00 +13°C° 0 mm 3 m/S 725 mmHg 56%
    16:00 +13°C° 0 mm 2 m/S 724 mmHg 56%
    17:00 +12°C° 0 mm 2 m/S 724 mmHg 60%
    18:00 +9°C° 0 mm 2 m/S 724 mmHg 64%
    19:00 +8°C° 0 mm 2 m/S 724 mmHg 68%
    20:00 +7°C° 0 mm 2 m/S 724 mmHg 69%
    21:00 +8°C° 0 mm 1 m/S 724 mmHg 70%
    22:00 +8°C° 0 mm 1 m/S 724 mmHg 71%
    23:00 +7°C° 0 mm 1 m/S 724 mmHg 72%

    22 Oktober, Montag

    Zeit Temperatur Niederschläge Wind Luftdruck Luftfeuchtigkeit
    00:00 +7°C° 0 mm 1 m/S 724 mmHg 74%
    01:00 +7°C° 0 mm 1 m/S 724 mmHg 76%
    02:00 +7°C° 0.1 mm 1 m/S 724 mmHg 80%
    03:00 +6°C° 0.1 mm 1 m/S 723 mmHg 83%
    04:00 +6°C° 0.1 mm 1 m/S 723 mmHg 87%
    05:00 +5°C° 0.2 mm 2 m/S 723 mmHg 87%
    06:00 +5°C° 0.2 mm 2 m/S 723 mmHg 87%
    07:00 +5°C° 0.2 mm 2 m/S 723 mmHg 87%
    08:00 +5°C° 0.3 mm 2 m/S 723 mmHg 86%
    09:00 +5°C° 0.3 mm 3 m/S 723 mmHg 84%
    10:00 +5°C° 0.3 mm 3 m/S 723 mmHg 83%
    11:00 +5°C° 0.1 mm 3 m/S 723 mmHg 82%
    12:00 +7°C° 0.1 mm 3 m/S 723 mmHg 81%
    13:00 +7°C° 0.1 mm 3 m/S 723 mmHg 79%
    14:00 +7°C° 0.2 mm 2 m/S 722 mmHg 80%
    15:00 +7°C° 0.2 mm 2 m/S 722 mmHg 81%
    16:00 +8°C° 0.2 mm 2 m/S 722 mmHg 82%
    17:00 +7°C° 0.1 mm 2 m/S 723 mmHg 82%
    18:00 +7°C° 0.1 mm 2 m/S 723 mmHg 82%
    19:00 +7°C° 0.1 mm 2 m/S 723 mmHg 82%
    20:00 +7°C° 0 mm 2 m/S 723 mmHg 82%
    21:00 +7°C° 0 mm 2 m/S 723 mmHg 81%
    22:00 +7°C° 0 mm 2 m/S 723 mmHg 80%
    23:00 +6°C° 0 mm 2 m/S 723 mmHg 81%

    23 Oktober, Dienstag

    Zeit Temperatur Niederschläge Wind Luftdruck Luftfeuchtigkeit
    00:00 +6°C° 0 mm 2 m/S 723 mmHg 82%
    01:00 +6°C° 0 mm 1 m/S 723 mmHg 83%
    02:00 +6°C° 0 mm 1 m/S 723 mmHg 84%
    03:00 +6°C° 0 mm 1 m/S 723 mmHg 84%
    04:00 +6°C° 0 mm 1 m/S 723 mmHg 84%
    05:00 +6°C° 0 mm 1 m/S 723 mmHg 84%
    06:00 +6°C° 0 mm 1 m/S 723 mmHg 83%
    07:00 +6°C° 0 mm 1 m/S 723 mmHg 82%
    08:00 +6°C° 0 mm 2 m/S 723 mmHg 77%
    09:00 +8°C° 0 mm 2 m/S 723 mmHg 72%
    10:00 +9°C° 0 mm 2 m/S 724 mmHg 67%
    11:00 +9°C° 0 mm 3 m/S 724 mmHg 68%
    12:00 +9°C° 0 mm 3 m/S 723 mmHg 69%
    13:00 +10°C° 0 mm 3 m/S 723 mmHg 70%
    14:00 +9°C° 0.1 mm 3 m/S 723 mmHg 74%
    15:00 +8°C° 0.1 mm 3 m/S 723 mmHg 79%
    16:00 +7°C° 0.1 mm 3 m/S 723 mmHg 83%
    17:00 +7°C° 0.3 mm 2 m/S 723 mmHg 84%
    18:00 +6°C° 0.3 mm 2 m/S 723 mmHg 84%
    19:00 +6°C° 0.3 mm 2 m/S 723 mmHg 85%
    20:00 +5°C° 0.2 mm 2 m/S 723 mmHg 84%
    21:00 +5°C° 0.2 mm 2 m/S 723 mmHg 84%
    22:00 +4°C° 0.2 mm 2 m/S 723 mmHg 83%
    23:00 +4°C° 0.1 mm 2 m/S 723 mmHg 83%

    24 Oktober, Mittwoch

    Zeit Temperatur Niederschläge Wind Luftdruck Luftfeuchtigkeit
    00:00 +5°C° 0.1 mm 1 m/S 723 mmHg 84%
    01:00 +4°C° 0.1 mm 1 m/S 723 mmHg 84%
    02:00 +4°C° 0 mm 1 m/S 723 mmHg 85%
    03:00 +4°C° 0 mm 1 m/S 723 mmHg 85%
    04:00 +3°C° 0 mm 1 m/S 723 mmHg 86%
    05:00 +4°C° 0 mm 1 m/S 723 mmHg 86%
    06:00 +4°C° 0 mm 1 m/S 723 mmHg 85%
    07:00 +4°C° 0 mm 1 m/S 723 mmHg 85%
    08:00 +6°C° 0 mm 1 m/S 723 mmHg 79%
    09:00 +8°C° 0 mm 1 m/S 723 mmHg 72%
    10:00 +10°C° 0 mm 1 m/S 723 mmHg 66%
    11:00 +11°C° 0 mm 1 m/S 723 mmHg 61%
    12:00 +12°C° 0 mm 1 m/S 722 mmHg 57%
    13:00 +13°C° 0 mm 1 m/S 722 mmHg 52%
    14:00 +12°C° 0 mm 1 m/S 721 mmHg 55%
    15:00 +12°C° 0 mm 1 m/S 721 mmHg 58%
    16:00 +11°C° 0 mm 1 m/S 721 mmHg 60%
    17:00 +10°C° 0.3 mm 1 m/S 721 mmHg 67%
    18:00 +9°C° 0.3 mm 1 m/S 721 mmHg 74%
    19:00 +8°C° 0.3 mm 1 m/S 721 mmHg 81%
    20:00 +7°C° 0.6 mm 2 m/S 721 mmHg 83%
    21:00 +7°C° 0.6 mm 2 m/S 721 mmHg 85%
    22:00 +7°C° 0.6 mm 2 m/S 721 mmHg 87%
    23:00 +8°C° 0.3 mm 2 m/S 721 mmHg 88%
    Mehr zeigen